Curacao, Curacao

2:26 PM AST on November 21, 2017 (GMT -0400)
Willemstad-Hato International

Weather History for TNCC - February, 2012

Change the Weather History Date:

Wednesday, February 15, 2012

  Actual Average Record
Temperature  
Mean Temperature 78 °F -  
Max Temperature 84 °F 84 °F 89 °F (2007)
Min Temperature 73 °F 75 °F 73 °F (2009)
Cooling Degree Days 14    
Growing Degree Days 28 (Base 50)    
Moisture  
Dew Point 71 °F    
Average Humidity 76    
Maximum Humidity 89    
Minimum Humidity 61    
Precipitation  
Precipitation 0.00 in 0.03 in - ()
Sea Level Pressure  
Sea Level Pressure 29.97 in    
Wind  
Wind Speed 9 mph ()    
Max Wind Speed 15 mph    
Max Gust Speed -    
Visibility 7.0 miles    
Events Rain    
Averages and records for this station are not official NWS values.
T = Trace of Precipitation, MM = Missing Value Source: Averaged Metar Reports

Daily Weather History Graph

Daily Weather History Graph

Search for Another Location

Airport or City:

Trip Planner

Search our weather history database for the weather conditions in past years. The results will help you decide how hot, cold, wet, or windy it might be!

Date:

Astronomy

Feb. 15, 2012 Rise Set
Actual Time 6:57 AM AST 6:42 PM AST
Civil Twilight 6:36 AM AST 7:04 PM AST
Nautical Twilight 6:11 AM AST 7:29 PM AST
Astronomical Twilight 5:46 AM AST 7:54 PM AST
Moon 1:18 AM AST (2/15) 1:05 PM AST (2/15)
Length of Visible Light 12h 27m
Length of Day
11h 44m
Last Quarter, 39% of the Moon is Illuminated
Feb 15
Last Quarter
Feb 21
New
Feb 29
First Quarter
Mar 8
Full
Mar 14
Last Quarter

Hourly Weather History & Observations

Time (AST) Temp. Heat Index Dew Point Humidity Pressure Visibility Wind Dir Wind Speed Gust Speed Precip Events Conditions
12:00 AM 77.0 °F - 71.6 °F 83% 29.98 in 6.2 mi East 10.4 mph - N/A   Scattered Clouds
1:00 AM 73.4 °F - 69.8 °F 88% 29.98 in 6.2 mi ESE 5.8 mph - N/A   Scattered Clouds
2:00 AM 77 °F - 71 °F 77% 29.96 in 16 mi East 9.2 mph - -   Scattered Clouds
2:00 AM 77.0 °F - 71.6 °F 83% 29.95 in 6.2 mi East 9.2 mph - N/A   Partly Cloudy
3:00 AM 73.4 °F - 69.8 °F 88% 29.95 in 6.2 mi ESE 6.9 mph - N/A   Partly Cloudy
4:00 AM 75.2 °F - 71.6 °F 89% 29.95 in 6.2 mi East 8.1 mph - N/A   Scattered Clouds
5:00 AM 76 °F - 70 °F 75% 29.96 in 16 mi East 9.2 mph - -   Partly Cloudy
5:00 AM 77.0 °F - 69.8 °F 78% 29.95 in 6.2 mi East 9.2 mph - N/A   Scattered Clouds
6:00 AM 73.4 °F - 68.0 °F 83% 29.95 in 6.2 mi East 9.2 mph - N/A   Partly Cloudy
7:00 AM 73.4 °F - 69.8 °F 88% 29.98 in 6.2 mi SE 5.8 mph - N/A   Scattered Clouds
8:00 AM 73.4 °F - 69.8 °F 88% 30.01 in 6.2 mi East 10.4 mph - N/A   Scattered Clouds
9:00 AM 75.2 °F - 69.8 °F 83% 30.01 in 6.2 mi ESE 6.9 mph - N/A   Scattered Clouds
10:00 AM 80.6 °F 85.4 °F 73.4 °F 79% 30.04 in 6.2 mi East 10.4 mph - N/A   Partly Cloudy
11:00 AM 78.8 °F - 71.6 °F 78% 30.04 in 6.2 mi East 15.0 mph - N/A   Scattered Clouds
12:00 PM 82.4 °F 85.4 °F 68.0 °F 62% 30.01 in 6.2 mi East 13.8 mph - N/A   Scattered Clouds
1:00 PM 82.4 °F 87.2 °F 71.6 °F 70% 29.98 in 6.2 mi East 12.7 mph - N/A   Partly Cloudy
2:00 PM 83 °F - 72 °F 63% 29.97 in 25 mi East 12.7 mph - - Rain Light Rain Showers
2:00 PM 82.4 °F 87.2 °F 71.6 °F 70% 29.98 in 6.2 mi East 12.7 mph - N/A   Partly Cloudy
3:00 PM 84.2 °F 89.6 °F 71.6 °F 66% 29.95 in 6.2 mi East 9.2 mph - N/A   Partly Cloudy
4:00 PM 84.2 °F 90.9 °F 73.4 °F 70% 29.92 in 6.2 mi East 10.4 mph - N/A   Partly Cloudy
5:00 PM 82 °F - 71 °F 61% 29.94 in 25 mi East 10.4 mph - -   Scattered Clouds
5:00 PM 82.4 °F 87.2 °F 71.6 °F 70% 29.92 in 6.2 mi East 10.4 mph - N/A   Partly Cloudy
6:00 PM 80.6 °F 84.6 °F 71.6 °F 74% 29.92 in 6.2 mi ENE 10.4 mph - N/A   Partly Cloudy
7:00 PM 78.8 °F - 69.8 °F 74% 29.95 in 6.2 mi ENE 11.5 mph - N/A   Partly Cloudy
8:00 PM 78 °F - 69 °F 67% 29.96 in 25 mi ENE 12.7 mph - -   Scattered Clouds
8:00 PM 78.8 °F - 69.8 °F 74% 29.95 in 6.2 mi ENE 12.7 mph - N/A   Partly Cloudy
9:00 PM 78.8 °F - 69.8 °F 74% 29.98 in 6.2 mi ENE 11.5 mph - N/A   Partly Cloudy
10:00 PM 78.8 °F - 69.8 °F 74% 29.98 in 6.2 mi East 12.7 mph - N/A   Partly Cloudy
11:00 PM 77.0 °F - 68.0 °F 74% 29.98 in - East 12.7 mph - N/A   Partly Cloudy